Weather reports worldwide

Advertisment
La Coruna, Spain (8001): temperature & dewpoint: 09.12.2018 23:00:00 - 15.12.2018 23:00:00 (CET)La Coruna, Spain (8001): wind speed: 09.12.2018 23:00:00 - 15.12.2018 23:00:00 (CET)La Coruna, Spain (8001): wind direction: 09.12.2018 23:00:00 - 15.12.2018 23:00:00 (CET)La Coruna, Spain (8001): reduced air pressure: 09.12.2018 23:00:00 - 15.12.2018 23:00:00 (CET)La Coruna, Spain (8001): visibility: 09.12.2018 23:00:00 - 15.12.2018 23:00:00 (CET)La Coruna, Spain (8001): precipitation: 09.12.2018 23:00:00 - 15.12.2018 23:00:00 (CET)
Date & Time tt [°C] td [°C] ff [km/h] ff [kn] dd ppp [hPa] vv [km] rr [mm]
15.12.2018 23:00:00 - - - - - - - -
15.12.2018 22:00:00 12,4 9,8 9 5 SW 1018,9 15 -
15.12.2018 21:00:00 12,8 9,8 11 6 WSW 1019,3 13 0,0
15.12.2018 20:00:00 13,2 10,9 15 8 W 1019,1 12 0,0
15.12.2018 19:00:00 13,4 11,3 16 9 W 1018,5 11 -
15.12.2018 18:00:00 14,0 12,7 18 10 W 1017,3 8 0,6
15.12.2018 17:00:00 14,3 13,0 22 12 WSW 1017,1 15 5,0
15.12.2018 16:00:00 15,0 13,9 16 9 W 1016,4 1,4 -
15.12.2018 15:00:00 15,8 13,3 26 14 SSW 1015,3 - 1,0
15.12.2018 14:00:00 16,0 12,9 29 16 SSW 1014,7 15 1,0
15.12.2018 13:00:00 17,2 12,9 22 12 SSW 1015,2 18 -
15.12.2018 12:00:00 16,9 12,6 22 12 SSW 1017,0 20 0,0
15.12.2018 11:00:00 16,4 12,4 24 13 S 1017,4 20 0,0
15.12.2018 10:00:00 15,7 12,4 21 11 S 1017,0 22 -
15.12.2018 09:00:00 15,3 12,2 18 10 S 1016,9 20 0,0
15.12.2018 08:00:00 15,2 12,3 15 8 S 1017,4 20 0,0
15.12.2018 07:00:00 14,7 12,0 21 11 S 1017,7 18 -
15.12.2018 06:00:00 14,8 11,9 21 11 S 1017,9 20 0,0
15.12.2018 05:00:00 14,7 11,7 21 11 SSW 1017,8 20 0,2
15.12.2018 04:00:00 14,6 11,6 22 12 S 1018,6 18 -
15.12.2018 03:00:00 14,5 11,5 24 13 S 1018,7 20 0,0
15.12.2018 02:00:00 14,5 11,6 22 12 S 1019,0 20 0,6
15.12.2018 01:00:00 14,2 11,5 18 10 SSW 1019,9 18 -
15.12.2018 00:00:00 14,3 11,3 24 13 SSW 1020,4 20 0,0
14.12.2018 23:00:00 14,1 11,4 24 13 SSW 1020,4 16 0,2
14.12.2018 22:00:00 13,9 11,1 13 7 S 1020,4 18 -
14.12.2018 21:00:00 13,7 10,7 13 7 S 1021,1 20 0,0
14.12.2018 20:00:00 13,2 10,4 15 8 S 1021,3 20 0,2
14.12.2018 19:00:00 13,0 10,0 15 8 S 1021,5 20 -
14.12.2018 18:00:00 12,7 9,7 15 8 SSE 1021,5 20 0,0
14.12.2018 17:00:00 12,5 9,7 13 7 S 1021,7 20 0,0
14.12.2018 16:00:00 12,2 9,6 11 6 SSE 1021,9 17 -
14.12.2018 15:00:00 12,6 9,2 13 7 S 1022,5 14 0,0
14.12.2018 14:00:00 12,3 9,1 13 7 SSE 1023,0 20 0,0
14.12.2018 13:00:00 11,6 9,2 11 6 SSE 1024,1 18 -
14.12.2018 12:00:00 11,5 8,5 9 5 S 1025,0 8 0,0
14.12.2018 11:00:00 11,1 7,8 9 5 S 1024,6 20 0,0
14.12.2018 10:00:00 11,1 7,8 15 8 SW 1024,2 18 -
14.12.2018 09:00:00 11,0 7,3 15 8 SSW 1023,4 19 0,0
14.12.2018 08:00:00 10,7 7,4 8 4 SSW 1022,7 16 0,0
14.12.2018 07:00:00 10,4 7,3 13 7 SW 1022,5 15 -
14.12.2018 06:00:00 10,2 7,3 16 9 SW 1022,4 19 0,0
14.12.2018 05:00:00 10,1 7,3 13 7 SW 1022,3 18 0,0
14.12.2018 04:00:00 10,1 7,3 15 8 WSW 1022,3 12 -
14.12.2018 03:00:00 10,0 7,4 16 9 SW 1022,0 14 0,0
14.12.2018 02:00:00 9,8 7,0 13 7 SW 1021,3 16 0,0
14.12.2018 01:00:00 10,3 7,0 9 5 WSW 1021,6 15 -
14.12.2018 00:00:00 10,4 7,1 13 7 W 1021,6 13 0,6
13.12.2018 23:00:00 11,0 7,1 18 10 WNW 1021,0 13 0,0
13.12.2018 22:00:00 10,8 8,0 9 5 W 1020,6 15 -
13.12.2018 21:00:00 11,3 7,0 15 8 WNW 1020,0 16 0,0
13.12.2018 20:00:00 11,2 7,1 18 10 W 1019,6 15 0,0
13.12.2018 19:00:00 11,6 7,7 21 11 WNW 1018,8 11 -
13.12.2018 18:00:00 11,4 7,1 21 11 WNW 1018,1 16 0,4
13.12.2018 17:00:00 11,9 7,8 24 13 WNW 1017,4 14 0,0
13.12.2018 16:00:00 11,9 7,4 21 11 NW 1016,7 15 -
13.12.2018 15:00:00 12,6 8,7 22 12 WNW 1015,9 8 0,4
13.12.2018 14:00:00 13,3 6,9 28 15 WNW 1015,3 18 0,0
13.12.2018 13:00:00 13,3 6,4 34 18 WNW 1014,6 20 -
13.12.2018 12:00:00 12,3 7,2 28 15 W 1014,4 15 0,0
13.12.2018 11:00:00 12,2 6,9 26 14 WNW 1013,4 15 0,0
13.12.2018 10:00:00 11,6 6,9 24 13 WNW 1012,3 18 -
13.12.2018 09:00:00 10,8 7,1 24 13 WNW 1011,2 15 0,0
13.12.2018 08:00:00 10,3 6,4 26 14 WNW 1010,1 15 0,4
13.12.2018 07:00:00 11,0 7,3 28 15 WNW 1009,2 12 -
13.12.2018 06:00:00 10,8 7,7 22 12 W 1008,0 19 0,2
13.12.2018 05:00:00 10,4 8,0 18 10 SW 1006,8 17 0,2
13.12.2018 04:00:00 10,4 7,5 21 11 SSW 1006,6 14 -
13.12.2018 03:00:00 10,6 8,7 9 5 SW 1006,6 5 1,0
13.12.2018 02:00:00 10,7 9,3 21 11 WSW 1005,7 14 0,8
13.12.2018 01:00:00 13,0 9,6 31 17 W 1005,8 12 -
13.12.2018 00:00:00 13,4 10,9 22 12 S 1004,0 19 0,2
12.12.2018 23:00:00 13,2 10,4 18 10 SSE 1005,2 20 0,0
12.12.2018 22:00:00 13,6 8,8 29 16 SSE 1006,3 15 -
12.12.2018 21:00:00 14,0 8,6 31 17 S 1007,4 20 0,0
12.12.2018 20:00:00 13,7 8,3 21 11 S 1008,8 20 0,0
12.12.2018 19:00:00 13,5 8,5 24 13 S 1010,6 20 -
12.12.2018 18:00:00 13,7 8,7 22 12 S 1012,6 19 0,2
12.12.2018 17:00:00 13,6 8,8 22 12 S 1013,3 20 0,0
12.12.2018 16:00:00 13,0 8,9 16 9 S 1013,9 20 -
12.12.2018 15:00:00 12,4 8,7 5 3 S 1016,2 20 0,0
12.12.2018 14:00:00 11,7 8,4 13 7 S 1017,6 20 0,0
12.12.2018 13:00:00 11,3 8,2 9 5 SSE 1019,2 18 -
12.12.2018 12:00:00 10,5 8,1 8 4 SSE 1020,7 20 0,0
12.12.2018 11:00:00 10,1 7,9 5 3 S 1021,3 18 0,0
12.12.2018 10:00:00 8,9 6,7 9 5 S 1021,1 18 -
12.12.2018 09:00:00 8,8 6,8 5 3 SE 1021,5 20 0,0
12.12.2018 08:00:00 8,5 6,6 8 4 SSE 1022,1 20 0,0
12.12.2018 07:00:00 8,2 6,7 4 2 SE 1022,6 20 -
12.12.2018 06:00:00 8,1 6,6 4 2 SSE 1023,4 20 0,0
12.12.2018 05:00:00 8,0 6,5 4 2 SE 1023,8 17 0,0
12.12.2018 04:00:00 8,8 6,9 4 2 S 1024,1 20 -
12.12.2018 03:00:00 9,0 7,3 5 3 S 1024,0 18 0,0
12.12.2018 02:00:00 9,6 7,5 2 1 SSE 1024,6 19 0,0
12.12.2018 01:00:00 10,1 7,5 2 1 SW 1024,5 20 -
12.12.2018 00:00:00 10,5 7,4 8 4 W 1024,6 18 0,0
11.12.2018 23:00:00 11,0 7,7 8 4 W 1024,5 19 0,0
11.12.2018 22:00:00 11,7 8,2 8 4 WNW 1024,8 20 -
11.12.2018 21:00:00 12,2 8,5 13 7 WNW 1024,6 20 0,0
11.12.2018 20:00:00 12,4 9,0 11 6 W 1024,5 20 0,0
11.12.2018 19:00:00 12,2 10,1 13 7 WNW 1024,3 11 -
11.12.2018 18:00:00 12,7 11,8 18 10 WNW 1023,6 4,4 1,0
11.12.2018 17:00:00 15,2 11,6 9 5 SW 1022,1 20 0,0
11.12.2018 16:00:00 14,6 11,6 13 7 WSW 1022,0 19 -
11.12.2018 15:00:00 15,1 12,0 8 4 WNW 1021,5 19 0,0
11.12.2018 14:00:00 15,7 10,5 16 9 SW 1021,6 20 0,0
11.12.2018 13:00:00 17,0 6,8 5 3 SSW 1021,9 20 -
11.12.2018 12:00:00 15,8 6,8 8 4 W 1022,6 20 0,0
11.12.2018 11:00:00 13,8 6,9 9 5 W 1022,4 20 0,0
11.12.2018 10:00:00 13,1 4,3 9 5 W 1021,8 25 -
11.12.2018 09:00:00 12,4 1,1 9 5 SE 1020,5 20 0,0
11.12.2018 08:00:00 13,1 0,8 13 7 SSE 1020,5 20 0,0
11.12.2018 07:00:00 12,7 0,7 16 9 S 1020,4 20 -
11.12.2018 06:00:00 11,6 2,1 8 4 S 1020,7 20 0,0
11.12.2018 05:00:00 11,8 1,7 11 6 SSW 1021,1 20 0,0
11.12.2018 04:00:00 11,9 1,8 11 6 SSE 1021,3 20 -
11.12.2018 03:00:00 11,1 2,4 8 4 SSE 1021,6 20 0,0
11.12.2018 02:00:00 10,5 3,5 5 3 SSE 1022,2 20 0,0
11.12.2018 01:00:00 11,0 4,7 4 2 SE 1023,3 20 -
11.12.2018 00:00:00 11,7 4,4 8 4 SE 1023,8 20 0,0
10.12.2018 23:00:00 12,2 4,7 11 6 SSE 1023,8 20 0,0
10.12.2018 22:00:00 12,5 5,6 13 7 SSE 1024,1 20 -
10.12.2018 21:00:00 13,0 6,3 11 6 SE 1024,3 20 0,0
10.12.2018 20:00:00 13,3 5,9 11 6 SE 1024,8 20 0,0
10.12.2018 19:00:00 13,9 6,0 8 4 SE 1025,3 20 -
10.12.2018 18:00:00 13,7 8,5 5 3 ESE 1025,7 16 0,0
10.12.2018 17:00:00 14,2 8,4 8 4 E 1025,9 12 0,0
10.12.2018 16:00:00 14,8 8,7 2 1 NNE 1026,3 11 -
10.12.2018 15:00:00 15,4 7,2 5 3 ENE 1026,9 18 0,0
10.12.2018 14:00:00 14,9 5,7 5 3 ESE 1027,8 20 0,0
10.12.2018 13:00:00 14,1 4,9 9 5 SE 1029,0 20 -
10.12.2018 12:00:00 12,0 3,5 11 6 SE 1030,1 20 0,0
10.12.2018 11:00:00 9,6 3,8 11 6 SE 1030,8 15 0,0
10.12.2018 10:00:00 8,0 5,3 8 4 SE 1031,0 18 -
10.12.2018 09:00:00 7,9 5,2 5 3 SSE 1031,3 15 0,0
10.12.2018 08:00:00 8,0 5,5 9 5 SSE 1031,4 15 0,0
10.12.2018 07:00:00 7,8 6,3 8 4 SE 1031,5 15 -
10.12.2018 06:00:00 7,9 6,4 9 5 SE 1031,9 15 0,0
10.12.2018 05:00:00 8,3 6,8 5 3 S 1032,6 14 0,0
10.12.2018 04:00:00 8,5 7,1 5 3 SE 1033,2 12 -
10.12.2018 03:00:00 8,6 7,5 4 2 SE 1033,4 9 0,0
10.12.2018 02:00:00 8,7 7,6 4 2 ESE 1033,6 8 0,0
10.12.2018 01:00:00 9,3 7,9 4 2 SE 1034,2 12 -
10.12.2018 00:00:00 9,9 8,7 5 3 ESE 1034,6 6 0,0
09.12.2018 23:00:00 10,5 8,9 5 3 E 1034,8 6 0,0

tt = temperature
td = dewpoint
ff = wind speed
dd = wind direction
ppp = reduced air pressure
vv = visibility
rr = precipitation

Next stations